Spokane Fairchild, WA

7:22 AM PDT on May 30, 2017 (GMT -0700)
Fairchild Air Force Base

Weather History for KSKA - December, 2011

Change the Weather History Date:

Wednesday, December 14, 2011

  Actual Average Record
Temperature  
Mean Temperature 24 °F -  
Max Temperature 26 °F 32 °F 53 °F (2002)
Min Temperature 21 °F 23 °F 2 °F (2008)
Degree Days  
Heating Degree Days 42    
Moisture  
Dew Point 24 °F    
Average Humidity 100    
Maximum Humidity 100    
Minimum Humidity 100    
Precipitation  
Precipitation 0.00 in - - ()
Sea Level Pressure  
Sea Level Pressure 30.21 in    
Wind  
Wind Speed 4 mph (WSW)    
Max Wind Speed 8 mph    
Max Gust Speed -    
Visibility 10 miles    
Events Snow    
Averages and records for this station are not official NWS values.
T = Trace of Precipitation, MM = Missing Value Source: NWS Daily Summary

Daily Weather History Graph

Daily Weather History Graph

Search for Another Location

Airport or City:

Trip Planner

Search our weather history database for the weather conditions in past years. The results will help you decide how hot, cold, wet, or windy it might be!

Date:

Astronomy

Dec. 14, 2011 Rise Set
Actual Time 7:31 AM PST 3:59 PM PST
Civil Twilight 6:55 AM PST 4:35 PM PST
Nautical Twilight 6:16 AM PST 5:14 PM PST
Astronomical Twilight 5:38 AM PST 5:51 PM PST
Moon 8:38 PM PST (12/14) 10:06 AM PST (12/14)
Length of Visible Light 9h 39m
Length of Day
8h 27m
Waning Gibbous, 82% of the Moon is Illuminated
Dec 14
Waning Gibbous
Dec 17
Last Quarter
Dec 24
New
Dec 31
First Quarter
Jan 8
Full

Hourly Weather History & Observations

Time (PST) Temp. Windchill Dew Point Humidity Pressure Visibility Wind Dir Wind Speed Gust Speed Precip Events Conditions
12:00 AM 23.0 °F 18.4 °F 23.0 °F 100% 30.17 in 10.0 mi South 3.5 mph - N/A   Overcast
12:05 AM 23.0 °F 18.4 °F 23.0 °F 100% 30.18 in 9.0 mi WSW 3.5 mph - N/A   Overcast
12:12 AM 23.0 °F - 23.0 °F 100% 30.18 in 6.0 mi Calm Calm - N/A Snow Light Snow
12:17 AM 23.0 °F - 23.0 °F 100% 30.18 in 5.0 mi Calm Calm - N/A Snow Light Snow
12:22 AM 23.0 °F 18.4 °F 23.0 °F 100% 30.18 in 6.0 mi SW 3.5 mph - N/A   Overcast
12:31 AM 23.0 °F 18.4 °F 23.0 °F 100% 30.18 in 5.0 mi SW 3.5 mph - N/A   Overcast
12:55 AM 23.4 °F 16.2 °F 23.4 °F 100% 30.18 in 10.0 mi SW 5.8 mph - 0.00 in   Overcast
12:56 AM 23.0 °F 15.8 °F 23.0 °F 100% 30.18 in 10.0 mi SW 5.8 mph - N/A   Overcast
1:09 AM 23.0 °F 18.4 °F 23.0 °F 100% 30.18 in 10.0 mi SSW 3.5 mph - N/A   Overcast
1:11 AM 23.0 °F 18.4 °F 23.0 °F 100% 30.18 in 10.0 mi SW 3.5 mph - N/A   Overcast
1:16 AM 23.0 °F 18.4 °F 23.0 °F 100% 30.17 in 10.0 mi SSW 3.5 mph - N/A   Overcast
1:18 AM 23.0 °F 17.0 °F 23.0 °F 100% 30.17 in 10.0 mi SSW 4.6 mph - N/A   Overcast
1:22 AM 23.0 °F 15.8 °F 23.0 °F 100% 30.17 in 10.0 mi South 5.8 mph - N/A   Overcast
1:34 AM 23.0 °F 17.0 °F 23.0 °F 100% 30.17 in 10.0 mi SSW 4.6 mph - N/A   Overcast
1:47 AM 23.0 °F 17.0 °F 23.0 °F 100% 30.18 in 10.0 mi SW 4.6 mph - N/A   Overcast
1:48 AM 23.0 °F 18.4 °F 23.0 °F 100% 30.18 in 10.0 mi SW 3.5 mph - N/A   Overcast
1:55 AM 23.0 °F 18.4 °F 23.0 °F 100% 30.19 in 10.0 mi SSW 3.5 mph - 0.00 in   Overcast
1:56 AM 23.0 °F 18.4 °F 23.0 °F 100% 30.19 in 10.0 mi SSW 3.5 mph - N/A   Overcast
2:02 AM 23.0 °F 18.4 °F 23.0 °F 100% 30.19 in 10.0 mi SW 3.5 mph - N/A   Overcast
2:10 AM 23.0 °F 15.8 °F 23.0 °F 100% 30.19 in 10.0 mi WSW 5.8 mph - N/A   Overcast
2:12 AM 23.0 °F 17.0 °F 23.0 °F 100% 30.19 in 10.0 mi WSW 4.6 mph - N/A   Overcast
2:15 AM 23.0 °F 17.0 °F 23.0 °F 100% 30.19 in 9.0 mi WSW 4.6 mph - N/A   Overcast
2:55 AM 22.8 °F 16.7 °F 22.8 °F 100% 30.19 in 9.0 mi SW 4.6 mph - 0.00 in   Overcast
3:10 AM 23.0 °F 17.0 °F 23.0 °F 100% 30.19 in 8.0 mi WSW 4.6 mph - N/A   Overcast
3:23 AM 23.0 °F 18.4 °F 23.0 °F 100% 30.19 in 10.0 mi SW 3.5 mph - N/A   Overcast
3:29 AM 23.0 °F 18.4 °F 23.0 °F 100% 30.19 in 10.0 mi SSW 3.5 mph - N/A   Overcast
3:43 AM 21.2 °F - 21.2 °F 100% 30.19 in 10.0 mi Calm Calm - N/A   Overcast
3:48 AM 21.2 °F 16.4 °F 21.2 °F 100% 30.19 in 10.0 mi SSW 3.5 mph - N/A   Overcast
3:55 AM 21.9 °F 15.7 °F 21.9 °F 100% 30.20 in 10.0 mi West 4.6 mph - 0.00 in   Overcast
3:57 AM 21.2 °F 14.9 °F 21.2 °F 100% 30.20 in 10.0 mi West 4.6 mph - N/A   Overcast
4:02 AM 21.2 °F 16.4 °F 21.2 °F 100% 30.20 in 10.0 mi SW 3.5 mph - N/A   Overcast
4:15 AM 21.2 °F 14.9 °F 21.2 °F 100% 30.21 in 10.0 mi WSW 4.6 mph - N/A   Overcast
4:19 AM 21.2 °F 14.9 °F 21.2 °F 100% 30.21 in 10.0 mi WSW 4.6 mph - N/A   Overcast
4:42 AM 21.2 °F 14.9 °F 21.2 °F 100% 30.21 in 10.0 mi West 4.6 mph - N/A   Overcast
4:55 AM 21.6 °F - 21.6 °F 100% 30.22 in 10.0 mi Calm Calm - 0.00 in   Overcast
5:03 AM 21.2 °F 16.4 °F 21.2 °F 100% 30.22 in 10.0 mi South 3.5 mph - N/A   Overcast
5:55 AM 21.6 °F - 21.6 °F 100% 30.23 in 10.0 mi Calm Calm - 0.00 in   Overcast
6:17 AM 21.2 °F - 21.2 °F 100% 30.23 in 10.0 mi Calm Calm - N/A   Overcast
6:26 AM 21.2 °F - 21.2 °F 100% 30.23 in 10.0 mi Calm Calm - N/A Snow Light Snow
6:35 AM 21.2 °F - 21.2 °F 100% 30.23 in 10.0 mi Calm Calm - N/A   Overcast
6:44 AM 21.2 °F - 21.2 °F 100% 30.24 in 10.0 mi Calm Calm - N/A Snow Light Snow
6:53 AM 21.2 °F - 21.2 °F 100% 30.23 in 10.0 mi Calm Calm - N/A   Overcast
6:55 AM 21.6 °F - 21.6 °F 100% 30.24 in 10.0 mi Calm Calm - 0.00 in   Overcast
7:19 AM 21.2 °F 16.4 °F 21.2 °F 100% 30.24 in 10.0 mi South 3.5 mph - N/A   Overcast
7:32 AM 21.2 °F 16.4 °F 21.2 °F 100% 30.25 in 10.0 mi SSE 3.5 mph - N/A   Overcast
7:43 AM 21.2 °F - 21.2 °F 100% 30.25 in 10.0 mi Calm Calm - N/A   Overcast
7:55 AM 21.4 °F - 21.4 °F 100% 30.25 in 10.0 mi Calm Calm - N/A   Overcast
8:06 AM 21.2 °F - 21.2 °F 100% 30.25 in 10.0 mi Calm Calm - N/A Snow Light Snow
8:15 AM 21.2 °F - 21.2 °F 100% 30.25 in 10.0 mi Calm Calm - N/A   Overcast
8:25 AM 21.2 °F - 21.2 °F 100% 30.26 in 10.0 mi Calm Calm - N/A   Overcast
8:41 AM 21.2 °F 16.4 °F 21.2 °F 100% 30.26 in 10.0 mi South 3.5 mph - N/A   Overcast
8:50 AM 21.2 °F - 21.2 °F 100% 30.26 in 10.0 mi Calm Calm - N/A   Overcast
8:55 AM 21.7 °F - 21.7 °F 100% 30.26 in 10.0 mi Calm Calm - 0.00 in   Overcast
9:02 AM 21.2 °F - 21.2 °F 100% 30.26 in 10.0 mi Calm Calm - N/A   Overcast
9:55 AM 22.6 °F 16.5 °F 22.6 °F 100% 30.27 in 10.0 mi South 4.6 mph - 0.00 in   Overcast
10:11 AM 23.0 °F 17.0 °F 23.0 °F 100% 30.27 in 10.0 mi South 4.6 mph - N/A   Overcast
10:18 AM 23.0 °F 17.0 °F 23.0 °F 100% 30.27 in 9.0 mi South 4.6 mph - N/A   Overcast
10:38 AM 23.0 °F 15.8 °F 23.0 °F 100% 30.27 in 10.0 mi South 5.8 mph - N/A   Overcast
10:39 AM 23.0 °F 15.8 °F 23.0 °F 100% 30.27 in 10.0 mi South 5.8 mph - N/A   Overcast
10:47 AM 23.0 °F 15.8 °F 23.0 °F 100% 30.27 in 10.0 mi South 5.8 mph - N/A   Overcast
10:55 AM 23.4 °F 16.2 °F 23.4 °F 100% 30.27 in 10.0 mi SSE 5.8 mph - 0.00 in   Overcast
11:55 AM 24.1 °F - 24.1 °F 100% 30.27 in 10.0 mi Calm Calm - N/A   Overcast
12:55 PM 25.2 °F - 25.2 °F 100% 30.25 in 10.0 mi Calm Calm - N/A   Overcast
1:02 PM 24.8 °F - 24.8 °F 100% 30.25 in 10.0 mi Calm Calm - N/A   Overcast
1:17 PM 24.8 °F - 24.8 °F 100% 30.24 in 10.0 mi Calm Calm - N/A   Overcast
1:28 PM 24.8 °F 20.5 °F 24.8 °F 100% 30.23 in 10.0 mi ENE 3.5 mph - N/A   Overcast
1:42 PM 26.6 °F 22.6 °F 26.6 °F 100% 30.23 in 8.0 mi East 3.5 mph - N/A   Overcast
1:55 PM 26.2 °F 20.7 °F 26.2 °F 100% 30.22 in 6.0 mi NE 4.6 mph - 0.00 in   Overcast
2:03 PM 26.6 °F 21.2 °F 26.6 °F 100% 30.22 in 10.0 mi ENE 4.6 mph - N/A   Overcast
2:13 PM 26.6 °F 21.2 °F 26.6 °F 100% 30.22 in 10.0 mi ENE 4.6 mph - N/A   Overcast
2:24 PM 26.6 °F 20.0 °F 26.6 °F 100% 30.22 in 10.0 mi ENE 5.8 mph - N/A   Overcast
2:25 PM 26.6 °F 20.0 °F 26.6 °F 100% 30.22 in 10.0 mi ENE 5.8 mph - N/A   Overcast
2:38 PM 26.6 °F 19.1 °F 26.6 °F 100% 30.22 in 10.0 mi NE 6.9 mph - N/A   Overcast
2:55 PM 26.6 °F 20.0 °F 26.6 °F 100% 30.22 in 10.0 mi NNE 5.8 mph - 0.00 in   Overcast
3:14 PM 26.6 °F 19.1 °F 26.6 °F 100% 30.22 in 10.0 mi NNE 6.9 mph - N/A   Overcast
3:24 PM 26.6 °F 18.2 °F 26.6 °F 100% 30.21 in 10.0 mi NNE 8.1 mph - N/A   Overcast
3:27 PM 26.6 °F 19.1 °F 26.6 °F 100% 30.22 in 10.0 mi NNE 6.9 mph - N/A   Overcast
3:39 PM 26.6 °F 19.1 °F 26.6 °F 100% 30.22 in 10.0 mi North 6.9 mph - N/A   Overcast
3:42 PM 26.6 °F 19.1 °F 26.6 °F 100% 30.22 in 10.0 mi North 6.9 mph - N/A   Overcast
3:52 PM 26.6 °F 19.1 °F 26.6 °F 100% 30.22 in 10.0 mi North 6.9 mph - N/A   Overcast
3:55 PM 25.9 °F 19.2 °F 25.9 °F 100% 30.22 in 10.0 mi North 5.8 mph - 0.00 in   Overcast
4:05 PM 26.6 °F 20.0 °F 26.6 °F 100% 30.22 in 10.0 mi North 5.8 mph - N/A   Overcast
4:55 PM 25.9 °F 18.2 °F 25.9 °F 100% 30.22 in 10.0 mi North 6.9 mph - N/A   Overcast
5:01 PM 26.6 °F 19.1 °F 26.6 °F 100% 30.22 in 10.0 mi NNE 6.9 mph - N/A   Overcast
5:07 PM 26.6 °F 19.1 °F 26.6 °F 100% 30.21 in 10.0 mi NNE 6.9 mph - N/A   Overcast
5:55 PM 25.9 °F 20.3 °F 25.9 °F 100% 30.20 in 10.0 mi North 4.6 mph - 0.00 in   Overcast
6:55 PM 26.2 °F 18.6 °F 26.2 °F 100% 30.19 in 10.0 mi North 6.9 mph - N/A   Overcast
7:37 PM 26.6 °F 20.0 °F 26.6 °F 100% 30.19 in 10.0 mi North 5.8 mph - N/A   Overcast
7:47 PM 26.6 °F 20.0 °F 26.6 °F 100% 30.18 in 10.0 mi North 5.8 mph - N/A   Overcast
7:55 PM 26.6 °F 20.0 °F 26.6 °F 100% 30.18 in 10.0 mi North 5.8 mph - 0.00 in   Overcast
8:12 PM 26.6 °F 20.0 °F 26.6 °F 100% 30.18 in 10.0 mi NNW 5.8 mph - N/A   Overcast
8:37 PM 26.6 °F 19.1 °F 26.6 °F 100% 30.19 in 10.0 mi North 6.9 mph - N/A   Overcast
8:55 PM 26.4 °F 19.8 °F 26.4 °F 100% 30.17 in 10.0 mi North 5.8 mph - 0.00 in   Overcast
9:55 PM 26.2 °F 19.6 °F 26.2 °F 100% 30.16 in 10.0 mi NNE 5.8 mph - N/A   Mostly Cloudy
10:32 PM 26.6 °F 19.1 °F 26.6 °F 100% 30.15 in 10.0 mi NNE 6.9 mph - N/A   Scattered Clouds
10:47 PM 26.6 °F 20.0 °F 26.6 °F 100% 30.16 in 10.0 mi NNE 5.8 mph - N/A   Partly Cloudy
10:55 PM 26.8 °F 18.5 °F 26.8 °F 100% 30.16 in 10.0 mi NNE 8.1 mph - 0.00 in   Mostly Cloudy
11:55 PM 24.3 °F 19.9 °F 24.3 °F 100% 30.17 in 10.0 mi WNW 3.5 mph - N/A   Overcast